| time (UTC) | temp F | wind direction | speed MPH | gust MPH | rain 1hr in | rain 24hr in | rain mn in | humidity % | barometer mb |
| 20260505211003 | 51 | 33 | 5.0 | 13.0 | 0.00 | 0.00 | 0.00 | 77 | 1012.6 |
| 20260505210504 | 51 | 27 | 6.0 | 13.0 | 0.00 | 0.00 | 0.00 | 77 | 1012.6 |
| 20260505210004 | 51 | 28 | 6.0 | 13.0 | 0.00 | 0.00 | 0.00 | 77 | 1012.6 |
| 20260505205504 | 51 | 32 | 5.0 | 12.0 | 0.00 | 0.00 | 0.00 | 77 | 1012.6 |
| 20260505205004 | 51 | 31 | 5.0 | 12.0 | 0.00 | 0.00 | 0.00 | 76 | 1012.6 |
| 20260505204503 | 51 | 29 | 6.0 | 17.0 | 0.00 | 0.00 | 0.00 | 76 | 1012.6 |
| 20260505204004 | 51 | 29 | 7.0 | 17.0 | 0.00 | 0.00 | 0.00 | 75 | 1012.4 |
| 20260505203504 | 52 | 25 | 7.0 | 12.0 | 0.00 | 0.00 | 0.00 | 74 | 1012.4 |
| 20260505203003 | 52 | 20 | 6.0 | 14.0 | 0.00 | 0.00 | 0.00 | 74 | 1012.4 |
| 20260505202503 | 52 | 23 | 6.0 | 14.0 | 0.00 | 0.00 | 0.00 | 73 | 1012.3 |
| 20260505202004 | 52 | 23 | 6.0 | 13.0 | 0.00 | 0.00 | 0.00 | 73 | 1012.3 |
| 20260505201504 | 52 | 19 | 7.0 | 14.0 | 0.00 | 0.00 | 0.00 | 72 | 1012.3 |
| 20260505201003 | 52 | 20 | 8.0 | 15.0 | 0.00 | 0.00 | 0.00 | 72 | 1012.1 |
| 20260505200503 | 52 | 18 | 7.0 | 15.0 | 0.00 | 0.00 | 0.00 | 71 | 1012.1 |
| 20260505200005 | 53 | 15 | 7.0 | 15.0 | 0.00 | 0.00 | 0.00 | 71 | 1012.1 |
| 20260505195714 | 53 | 18 | 7.0 | 15.0 | 0.00 | 0.00 | 0.00 | 71 | 1012.0 |
| 20260505195004 | 53 | 20 | 7.0 | 15.0 | 0.00 | 0.00 | 0.00 | 70 | 1012.0 |
| 20260505194504 | 53 | 18 | 7.0 | 19.0 | 0.00 | 0.00 | 0.00 | 70 | 1012.0 |
| 20260505194003 | 54 | 20 | 7.0 | 19.0 | 0.00 | 0.00 | 0.00 | 70 | 1011.6 |
| 20260505193503 | 54 | 28 | 7.0 | 15.0 | 0.00 | 0.00 | 0.00 | 69 | 1011.6 |
| 20260505193004 | 54 | 30 | 5.0 | 13.0 | 0.00 | 0.00 | 0.00 | 69 | 1011.6 |
| 20260505192504 | 54 | 27 | 5.0 | 12.0 | 0.00 | 0.00 | 0.00 | 68 | 1011.4 |
| 20260505192004 | 54 | 15 | 6.0 | 13.0 | 0.00 | 0.00 | 0.00 | 68 | 1011.4 |
| 20260505191504 | 54 | 12 | 6.0 | 14.0 | 0.00 | 0.00 | 0.00 | 67 | 1011.4 |
| 20260505191003 | 55 | 28 | 6.0 | 14.0 | 0.00 | 0.00 | 0.00 | 67 | 1011.3 |
| 20260505190503 | 55 | 33 | 6.0 | 14.0 | 0.00 | 0.00 | 0.00 | 67 | 1011.3 |
| 20260505190003 | 55 | 29 | 6.0 | 13.0 | 0.00 | 0.00 | 0.00 | 67 | 1011.3 |
| 20260505185504 | 55 | 34 | 7.0 | 14.0 | 0.00 | 0.00 | 0.00 | 67 | 1011.2 |
| 20260505185213 | 55 | 38 | 7.0 | 14.0 | 0.00 | 0.00 | 0.00 | 67 | 1011.2 |
| 20260505184503 | 56 | 34 | 5.0 | 12.0 | 0.00 | 0.00 | 0.00 | 68 | 1011.2 |
| 20260505184003 | 56 | 22 | 5.0 | 13.0 | 0.00 | 0.00 | 0.00 | 68 | 1011.0 |
| 20260505183717 | 56 | 15 | 5.0 | 13.0 | 0.00 | 0.00 | 0.00 | 68 | 1011.0 |
| 20260505183003 | 56 | 12 | 7.0 | 14.0 | 0.00 | 0.00 | 0.00 | 68 | 1011.0 |
| 20260505182504 | 56 | 15 | 7.0 | 14.0 | 0.00 | 0.00 | 0.00 | 68 | 1010.9 |
| 20260505182003 | 56 | 24 | 6.0 | 11.0 | 0.00 | 0.00 | 0.00 | 67 | 1010.9 |
| 20260505181504 | 56 | 17 | 6.0 | 13.0 | 0.00 | 0.00 | 0.00 | 67 | 1010.9 |
| 20260505181003 | 56 | 10 | 7.0 | 14.0 | 0.00 | 0.00 | 0.00 | 67 | 1011.0 |
| 20260505180504 | 57 | 10 | 8.0 | 15.0 | 0.00 | 0.00 | 0.00 | 67 | 1011.0 |
| 20260505180004 | 57 | 12 | 8.0 | 15.0 | 0.00 | 0.00 | 0.00 | 67 | 1011.0 |
| 20260505175504 | 57 | 12 | 7.0 | 14.0 | 0.00 | 0.00 | 0.00 | 68 | 1011.0 |
| 20260505175004 | 57 | 11 | 7.0 | 14.0 | 0.00 | 0.00 | 0.00 | 67 | 1011.0 |
| 20260505174504 | 57 | 13 | 7.0 | 17.0 | 0.00 | 0.00 | 0.00 | 67 | 1011.0 |
| 20260505174004 | 58 | 16 | 5.0 | 17.0 | 0.00 | 0.00 | 0.00 | 68 | 1010.9 |
| 20260505173712 | 58 | 15 | 5.0 | 13.0 | 0.00 | 0.00 | 0.00 | 68 | 1010.9 |
| 20260505173216 | 58 | 31 | 6.0 | 13.0 | 0.00 | 0.00 | 0.00 | 67 | 1010.9 |
| 20260505172713 | 58 | 31 | 7.0 | 15.0 | 0.00 | 0.00 | 0.00 | 67 | 1010.8 |
| 20260505172004 | 58 | 17 | 6.0 | 15.0 | 0.00 | 0.00 | 0.00 | 66 | 1010.8 |
| 20260505171505 | 58 | 25 | 6.0 | 13.0 | 0.00 | 0.00 | 0.00 | 66 | 1010.8 |
| 20260505171003 | 58 | 26 | 6.0 | 13.0 | 0.00 | 0.00 | 0.00 | 66 | 1010.8 |
| 20260505170715 | 58 | 25 | 5.0 | 13.0 | 0.00 | 0.00 | 0.00 | 66 | 1010.8 |
| 20260505170005 | 58 | 21 | 4.0 | 9.0 | 0.00 | 0.00 | 0.00 | 66 | 1010.8 |
| 20260505165716 | 58 | 18 | 4.0 | 10.0 | 0.00 | 0.00 | 0.00 | 66 | 1010.8 |
| 20260505165003 | 59 | 22 | 6.0 | 13.0 | 0.00 | 0.00 | 0.00 | 65 | 1010.8 |
| 20260505164503 | 59 | 12 | 7.0 | 12.0 | 0.00 | 0.00 | 0.00 | 65 | 1010.8 |
| 20260505164003 | 59 | 3 | 7.0 | 12.0 | 0.00 | 0.00 | 0.00 | 64 | 1010.7 |
| 20260505163503 | 59 | 2 | 6.0 | 11.0 | 0.00 | 0.00 | 0.00 | 62 | 1010.7 |
| 20260505163003 | 59 | 357 | 6.0 | 11.0 | 0.00 | 0.00 | 0.00 | 61 | 1010.7 |
| 20260505162503 | 59 | 1 | 5.0 | 11.0 | 0.00 | 0.00 | 0.00 | 61 | 1010.6 |
| 20260505162003 | 59 | 3 | 5.0 | 11.0 | 0.00 | 0.00 | 0.00 | 61 | 1010.6 |
| 20260505161505 | 59 | 1 | 5.0 | 11.0 | 0.00 | 0.00 | 0.00 | 61 | 1010.6 |
| 20260505161003 | 59 | 2 | 5.0 | 11.0 | 0.00 | 0.00 | 0.00 | 60 | 1010.7 |
| 20260505160504 | 59 | 1 | 5.0 | 11.0 | 0.00 | 0.00 | 0.00 | 60 | 1010.7 |
| 20260505153217 | 60 | 360 | 4.0 | 7.0 | 0.00 | 0.00 | 0.00 | 60 | 1010.8 |
| 20260505152503 | 60 | 7 | 3.0 | 6.0 | 0.00 | 0.00 | 0.00 | 60 | 1010.9 |
| 20260505152003 | 60 | 4 | 2.0 | 5.0 | 0.00 | 0.00 | 0.00 | 59 | 1010.9 |
| 20260505151503 | 60 | 358 | 2.0 | 5.0 | 0.00 | 0.00 | 0.00 | 60 | 1010.9 |
| 20260505151003 | 60 | 6 | 3.0 | 5.0 | 0.00 | 0.00 | 0.00 | 60 | 1011.0 |
| 20260505150717 | 60 | 9 | 2.0 | 5.0 | 0.00 | 0.00 | 0.00 | 60 | 1011.0 |
| 20260505140503 | 60 | 353 | 5.0 | 9.0 | 0.00 | 0.00 | 0.00 | 59 | 1011.1 |
| 20260505125003 | 61 | 10 | 2.0 | 6.0 | 0.00 | 0.00 | 0.00 | 58 | 1011.2 |
| 20260505124504 | 61 | 23 | 3.0 | 7.0 | 0.00 | 0.00 | 0.00 | 58 | 1011.2 |
| 20260505124003 | 61 | 13 | 3.0 | 7.0 | 0.00 | 0.00 | 0.00 | 58 | 1011.3 |
| 20260505123504 | 61 | 6 | 4.0 | 11.0 | 0.00 | 0.00 | 0.00 | 59 | 1011.3 |
| 20260505123003 | 62 | 8 | 5.0 | 11.0 | 0.00 | 0.00 | 0.00 | 57 | 1011.3 |
| 20260505122503 | 63 | 358 | 4.0 | 12.0 | 0.00 | 0.00 | 0.00 | 57 | 1011.2 |
| 20260505122003 | 64 | 346 | 2.0 | 12.0 | 0.00 | 0.00 | 0.00 | 55 | 1011.2 |
| 20260505121504 | 62 | 75 | 1.0 | 5.0 | 0.00 | 0.00 | 0.00 | 55 | 1011.2 |
| 20260505121004 | 62 | 55 | 2.0 | 7.0 | 0.00 | 0.00 | 0.00 | 54 | 1011.3 |
| 20260505120504 | 62 | 66 | 3.0 | 7.0 | 0.00 | 0.00 | 0.00 | 56 | 1011.3 |
| 20260505120005 | 62 | 74 | 3.0 | 7.0 | 0.00 | 0.00 | 0.00 | 52 | 1011.3 |
| 20260505115504 | 62 | 58 | 3.0 | 7.0 | 0.00 | 0.00 | 0.00 | 54 | 1011.4 |
| 20260505115003 | 61 | 40 | 3.0 | 7.0 | 0.00 | 0.00 | 0.00 | 59 | 1011.4 |
| 20260505114503 | 60 | 10 | 2.0 | 6.0 | 0.00 | 0.00 | 0.00 | 60 | 1011.4 |
| 20260505114004 | 60 | 9 | 2.0 | 7.0 | 0.00 | 0.00 | 0.00 | 63 | 1011.5 |
| 20260505113716 | 60 | 347 | 2.0 | 7.0 | 0.00 | 0.00 | 0.00 | 62 | 1011.5 |
| 20260505113003 | 60 | 338 | 5.0 | 11.0 | 0.00 | 0.00 | 0.00 | 64 | 1011.5 |
| 20260505112503 | 60 | 354 | 5.0 | 11.0 | 0.00 | 0.00 | 0.00 | 63 | 1011.7 |
| 20260505112003 | 60 | 12 | 4.0 | 9.0 | 0.00 | 0.00 | 0.00 | 63 | 1011.7 |
| 20260505111503 | 60 | 29 | 4.0 | 9.0 | 0.00 | 0.00 | 0.00 | 64 | 1011.7 |
| 20260505111003 | 60 | 26 | 3.0 | 7.0 | 0.00 | 0.00 | 0.00 | 64 | 1011.9 |
| 20260505110714 | 60 | 5 | 4.0 | 7.0 | 0.00 | 0.00 | 0.00 | 64 | 1011.9 |
| 20260505102004 | 60 | 6 | 3.0 | 6.0 | 0.00 | 0.00 | 0.00 | 68 | 1012.0 |
| 20260505101505 | 59 | 352 | 3.0 | 6.0 | 0.00 | 0.00 | 0.00 | 67 | 1012.0 |
| 20260505101003 | 58 | 18 | 2.0 | 6.0 | 0.00 | 0.00 | 0.00 | 71 | 1012.1 |
| 20260505100504 | 58 | 18 | 2.0 | 6.0 | 0.00 | 0.00 | 0.00 | 72 | 1012.1 |
| 20260505100004 | 57 | 4 | 3.0 | 6.0 | 0.00 | 0.00 | 0.00 | 74 | 1012.1 |
| 20260505095504 | 57 | 360 | 3.0 | 7.0 | 0.00 | 0.00 | 0.00 | 74 | 1012.2 |
| 20260505095003 | 56 | 10 | 3.0 | 7.0 | 0.00 | 0.00 | 0.00 | 74 | 1012.2 |
| 20260505094503 | 56 | 10 | 3.0 | 6.0 | 0.00 | 0.00 | 0.00 | 75 | 1012.2 |
| 20260505094003 | 56 | 3 | 3.0 | 9.0 | 0.00 | 0.00 | 0.00 | 76 | 1012.4 |
| 20260505093503 | 56 | 3 | 3.0 | 9.0 | 0.00 | 0.00 | 0.00 | 77 | 1012.4 |
| 20260505093004 | 55 | 1 | 3.0 | 7.0 | 0.00 | 0.00 | 0.00 | 78 | 1012.4 |
| 20260505092504 | 55 | 356 | 3.0 | 7.0 | 0.00 | 0.00 | 0.00 | 78 | 1012.4 |
| 20260505092216 | 55 | 350 | 4.0 | 9.0 | 0.00 | 0.00 | 0.00 | 80 | 1012.4 |
| 20260505091504 | 55 | 346 | 4.0 | 9.0 | 0.00 | 0.00 | 0.00 | 80 | 1012.4 |
| 20260505091217 | 55 | 347 | 4.0 | 9.0 | 0.00 | 0.00 | 0.00 | 80 | 1012.4 |
| 20260505090504 | 55 | 360 | 4.0 | 11.0 | 0.00 | 0.00 | 0.00 | 80 | 1012.4 |
| 20260505090005 | 55 | 8 | 3.0 | 11.0 | 0.00 | 0.00 | 0.00 | 79 | 1012.4 |
| 20260505085504 | 55 | 11 | 2.0 | 6.0 | 0.00 | 0.00 | 0.00 | 80 | 1012.4 |
| 20260505085003 | 55 | 4 | 2.0 | 6.0 | 0.00 | 0.00 | 0.00 | 81 | 1012.4 |
| 20260505084503 | 54 | 349 | 3.0 | 6.0 | 0.00 | 0.00 | 0.00 | 81 | 1012.4 |
| 20260505084003 | 54 | 340 | 3.0 | 6.0 | 0.00 | 0.00 | 0.00 | 81 | 1012.3 |
| 20260505083503 | 54 | 342 | 3.0 | 6.0 | 0.00 | 0.00 | 0.00 | 82 | 1012.3 |
| 20260505083003 | 54 | 350 | 3.0 | 6.0 | 0.00 | 0.00 | 0.00 | 82 | 1012.3 |
| 20260505082503 | 54 | 360 | 3.0 | 9.0 | 0.00 | 0.00 | 0.00 | 83 | 1012.5 |
| 20260505082004 | 54 | 355 | 4.0 | 9.0 | 0.00 | 0.00 | 0.00 | 83 | 1012.5 |
| 20260505081715 | 54 | 353 | 5.0 | 9.0 | 0.00 | 0.00 | 0.00 | 83 | 1012.5 |
| 20260505081003 | 53 | 356 | 3.0 | 7.0 | 0.00 | 0.00 | 0.00 | 84 | 1012.5 |
| 20260505080503 | 53 | 346 | 3.0 | 6.0 | 0.00 | 0.00 | 0.00 | 84 | 1012.5 |
| 20260505080003 | 53 | 329 | 3.0 | 7.0 | 0.00 | 0.00 | 0.00 | 84 | 1012.5 |
| 20260505075503 | 54 | 338 | 3.0 | 7.0 | 0.00 | 0.00 | 0.00 | 84 | 1012.5 |
| 20260505075004 | 54 | 348 | 2.0 | 6.0 | 0.00 | 0.00 | 0.00 | 86 | 1012.5 |
| 20260505074503 | 54 | 340 | 2.0 | 6.0 | 0.00 | 0.00 | 0.00 | 88 | 1012.5 |
| 20260505074003 | 52 | 339 | 2.0 | 3.0 | 0.00 | 0.00 | 0.00 | 90 | 1012.5 |
| 20260505073503 | 52 | 330 | 2.0 | 5.0 | 0.00 | 0.00 | 0.00 | 91 | 1012.5 |
| 20260505073217 | 52 | 327 | 2.0 | 5.0 | 0.00 | 0.00 | 0.00 | 91 | 1012.5 |
| 20260505072504 | 52 | 333 | 2.0 | 5.0 | 0.00 | 0.00 | 0.00 | 92 | 1012.6 |
| 20260505072003 | 51 | 10 | 2.0 | 3.0 | 0.00 | 0.00 | 0.00 | 93 | 1012.6 |
| 20260505071503 | 51 | 31 | 2.0 | 3.0 | 0.00 | 0.00 | 0.00 | 93 | 1012.6 |
| 20260505071003 | 51 | 31 | 1.0 | 3.0 | 0.00 | 0.00 | 0.00 | 93 | 1012.6 |
| 20260505070504 | 51 | 31 | 1.0 | 3.0 | 0.00 | 0.00 | 0.00 | 93 | 1012.6 |
| 20260505070005 | 51 | 31 | 1.0 | 3.0 | 0.00 | 0.00 | 0.00 | 93 | 1012.6 |
| 20260505065712 | 51 | 31 | 1.0 | 3.0 | 0.00 | 0.00 | 0.00 | 93 | 1012.6 |
| 20260505065003 | 51 | 31 | 1.0 | 3.0 | 0.00 | 0.00 | 0.00 | 93 | 1012.6 |
| 20260505064503 | 50 | 31 | 1.0 | 3.0 | 0.00 | 0.00 | 0.00 | 93 | 1012.6 |
| 20260505064217 | 50 | 31 | 1.0 | 3.0 | 0.00 | 0.00 | 0.00 | 93 | 1012.8 |
| 20260505063714 | 50 | 31 | 1.0 | 3.0 | 0.00 | 0.00 | 0.00 | 93 | 1012.8 |
| 20260505063005 | 50 | 31 | 1.0 | 3.0 | 0.00 | 0.00 | 0.00 | 93 | 1012.8 |
| 20260505062503 | 50 | 31 | 1.0 | 3.0 | 0.00 | 0.00 | 0.00 | 93 | 1012.8 |
| 20260505062003 | 50 | 31 | 1.0 | 3.0 | 0.00 | 0.00 | 0.00 | 93 | 1012.8 |
| 20260505061503 | 50 | 31 | 1.0 | 3.0 | 0.00 | 0.00 | 0.00 | 93 | 1012.8 |
| 20260505061004 | 50 | 31 | 1.0 | 3.0 | 0.00 | 0.00 | 0.00 | 93 | 1012.8 |
| 20260505060503 | 50 | 31 | 1.0 | 3.0 | 0.00 | 0.00 | 0.00 | 93 | 1012.8 |
| 20260505060005 | 50 | 31 | 1.0 | 3.0 | 0.00 | 0.00 | 0.00 | 93 | 1012.8 |
| 20260505055503 | 50 | 31 | 1.0 | 3.0 | 0.00 | 0.00 | 0.00 | 93 | 1012.9 |
| 20260505055003 | 50 | 31 | 1.0 | 2.0 | 0.00 | 0.00 | 0.00 | 92 | 1012.9 |
| 20260505054503 | 50 | 31 | 1.0 | 2.0 | 0.00 | 0.00 | 0.00 | 92 | 1012.9 |
| 20260505054003 | 50 | 31 | 1.0 | 3.0 | 0.00 | 0.00 | 0.00 | 92 | 1012.8 |
| 20260505053504 | 50 | 31 | 2.0 | 3.0 | 0.00 | 0.00 | 0.00 | 92 | 1012.8 |
| 20260505053003 | 49 | 31 | 1.0 | 3.0 | 0.00 | 0.00 | 0.00 | 92 | 1012.8 |
| 20260505052504 | 49 | 0 | 0.0 | 0.0 | 0.00 | 0.00 | 0.00 | 92 | 1012.8 |
| 20260505052214 | 49 | 0 | 0.0 | 0.0 | 0.00 | 0.00 | 0.00 | 92 | 1012.8 |
| 20260505051504 | 49 | 0 | 0.0 | 0.0 | 0.00 | 0.00 | 0.00 | 92 | 1012.8 |
| 20260505051004 | 49 | 0 | 0.0 | 0.0 | 0.00 | 0.00 | 0.00 | 92 | 1012.8 |
| 20260505050503 | 49 | 31 | 0.0 | 2.0 | 0.00 | 0.00 | 0.00 | 92 | 1012.8 |
| 20260505041503 | 49 | 31 | 0.0 | 1.0 | 0.00 | 0.00 | 0.00 | 91 | 1012.7 |
| 20260505041003 | 49 | 31 | 0.0 | 1.0 | 0.00 | 0.00 | 0.00 | 91 | 1012.7 |
| 20260505040503 | 49 | 31 | 0.0 | 2.0 | 0.00 | 0.00 | 0.00 | 91 | 1012.7 |
| 20260505040005 | 49 | 31 | 1.0 | 2.0 | 0.00 | 0.00 | 0.00 | 91 | 1012.7 |
| 20260505035504 | 49 | 31 | 1.0 | 3.0 | 0.00 | 0.00 | 0.00 | 91 | 1012.6 |
| 20260505035003 | 49 | 31 | 2.0 | 3.0 | 0.00 | 0.00 | 0.00 | 91 | 1012.6 |
| 20260505034503 | 49 | 31 | 1.0 | 3.0 | 0.00 | 0.00 | 0.00 | 91 | 1012.6 |
| 20260505034003 | 49 | 31 | 1.0 | 2.0 | 0.00 | 0.00 | 0.00 | 91 | 1012.8 |
| 20260505033505 | 49 | 31 | 0.0 | 2.0 | 0.00 | 0.00 | 0.00 | 91 | 1012.8 |
| 20260505033005 | 49 | 31 | 0.0 | 1.0 | 0.00 | 0.00 | 0.00 | 90 | 1012.8 |
| 20260505032712 | 49 | 31 | 0.0 | 2.0 | 0.00 | 0.00 | 0.00 | 90 | 1013.0 |
| 20260505032215 | 49 | 31 | 0.0 | 2.0 | 0.00 | 0.00 | 0.00 | 90 | 1013.0 |
| 20260505031504 | 49 | 31 | 0.0 | 1.0 | 0.00 | 0.00 | 0.00 | 90 | 1013.0 |
| 20260505031216 | 49 | 31 | 0.0 | 2.0 | 0.00 | 0.00 | 0.00 | 90 | 1012.7 |
| 20260505030503 | 49 | 31 | 1.0 | 3.0 | 0.00 | 0.00 | 0.00 | 90 | 1012.7 |
| 20260505030003 | 49 | 31 | 2.0 | 3.0 | 0.00 | 0.00 | 0.00 | 90 | 1012.7 |
| 20260505025503 | 49 | 31 | 2.0 | 3.0 | 0.00 | 0.00 | 0.00 | 90 | 1012.8 |
| 20260505025213 | 49 | 31 | 2.0 | 3.0 | 0.00 | 0.00 | 0.00 | 90 | 1012.8 |
| 20260505024503 | 49 | 31 | 1.0 | 2.0 | 0.00 | 0.00 | 0.00 | 89 | 1012.8 |
| 20260505024004 | 48 | 31 | 0.0 | 2.0 | 0.00 | 0.00 | 0.00 | 89 | 1012.9 |
| 20260505023503 | 48 | 0 | 0.0 | 0.0 | 0.00 | 0.00 | 0.00 | 89 | 1012.9 |
| 20260505023003 | 48 | 0 | 0.0 | 0.0 | 0.00 | 0.00 | 0.00 | 89 | 1012.9 |
| 20260505022503 | 48 | 0 | 0.0 | 0.0 | 0.00 | 0.00 | 0.00 | 89 | 1013.1 |
| 20260505022003 | 48 | 0 | 0.0 | 0.0 | 0.00 | 0.00 | 0.00 | 89 | 1013.1 |
| 20260505021503 | 48 | 0 | 0.0 | 0.0 | 0.00 | 0.00 | 0.00 | 88 | 1013.1 |
| 20260505021003 | 48 | 0 | 0.0 | 0.0 | 0.00 | 0.00 | 0.00 | 88 | 1013.1 |
| 20260505020503 | 48 | 0 | 0.0 | 0.0 | 0.00 | 0.00 | 0.00 | 88 | 1013.1 |
| 20260505020004 | 48 | 0 | 0.0 | 0.0 | 0.00 | 0.00 | 0.00 | 87 | 1013.1 |
| 20260505015504 | 48 | 0 | 0.0 | 0.0 | 0.00 | 0.00 | 0.00 | 87 | 1013.1 |
| 20260505015003 | 48 | 0 | 0.0 | 0.0 | 0.00 | 0.00 | 0.00 | 87 | 1013.1 |
| 20260505014504 | 49 | 0 | 0.0 | 0.0 | 0.00 | 0.00 | 0.00 | 87 | 1013.1 |
| 20260505014003 | 49 | 0 | 0.0 | 0.0 | 0.00 | 0.00 | 0.00 | 87 | 1013.2 |
| 20260505013718 | 49 | 0 | 0.0 | 0.0 | 0.00 | 0.00 | 0.00 | 87 | 1013.2 |
| 20260505013215 | 50 | 0 | 0.0 | 0.0 | 0.00 | 0.00 | 0.00 | 87 | 1013.2 |
| 20260505012504 | 50 | 31 | 0.0 | 2.0 | 0.00 | 0.00 | 0.00 | 87 | 1013.3 |
| 20260505012003 | 50 | 27 | 1.0 | 3.0 | 0.00 | 0.00 | 0.00 | 87 | 1013.3 |
| 20260505011504 | 50 | 19 | 1.0 | 3.0 | 0.00 | 0.00 | 0.00 | 87 | 1013.3 |
| 20260505011004 | 51 | 13 | 1.0 | 3.0 | 0.00 | 0.00 | 0.00 | 88 | 1013.4 |
| 20260505010503 | 51 | 12 | 1.0 | 3.0 | 0.00 | 0.00 | 0.00 | 87 | 1013.4 |
| 20260505010005 | 51 | 6 | 1.0 | 3.0 | 0.00 | 0.00 | 0.00 | 87 | 1013.4 |
| 20260505005503 | 51 | 3 | 1.0 | 3.0 | 0.00 | 0.00 | 0.00 | 87 | 1013.5 |
| 20260505005005 | 51 | 7 | 1.0 | 3.0 | 0.00 | 0.00 | 0.00 | 87 | 1013.5 |
| 20260505004717 | 51 | 13 | 1.0 | 3.0 | 0.00 | 0.00 | 0.00 | 87 | 1013.5 |
| 20260505004004 | 51 | 27 | 1.0 | 3.0 | 0.00 | 0.00 | 0.00 | 87 | 1013.6 |
| 20260505003503 | 51 | 45 | 1.0 | 3.0 | 0.00 | 0.00 | 0.00 | 87 | 1013.6 |
| 20260505003003 | 51 | 56 | 1.0 | 3.0 | 0.00 | 0.00 | 0.00 | 87 | 1013.6 |
| 20260505002504 | 51 | 53 | 2.0 | 3.0 | 0.00 | 0.00 | 0.00 | 87 | 1013.6 |
| 20260505002004 | 52 | 43 | 2.0 | 3.0 | 0.00 | 0.00 | 0.00 | 87 | 1013.6 |
| 20260505001504 | 52 | 37 | 1.0 | 3.0 | 0.00 | 0.00 | 0.00 | 87 | 1013.6 |
| 20260505001004 | 52 | 42 | 1.0 | 2.0 | 0.00 | 0.00 | 0.00 | 87 | 1013.8 |
| 20260505000503 | 52 | 42 | 1.0 | 2.0 | 0.00 | 0.00 | 0.00 | 87 | 1013.8 |
| 20260505000014 | 52 | 42 | 0.0 | 2.0 | 0.00 | 0.01 | 0.00 | 86 | 1013.8 |
| 20260504235503 | 52 | 28 | 1.0 | 3.0 | 0.00 | 0.01 | 0.01 | 86 | 1014.0 |
| 20260504235003 | 52 | 18 | 1.0 | 3.0 | 0.00 | 0.01 | 0.01 | 86 | 1014.0 |
| 20260504234503 | 52 | 14 | 1.0 | 3.0 | 0.00 | 0.01 | 0.01 | 86 | 1014.0 |
| 20260504234005 | 52 | 25 | 1.0 | 3.0 | 0.00 | 0.01 | 0.01 | 86 | 1014.0 |
| 20260504233505 | 52 | 37 | 1.0 | 2.0 | 0.00 | 0.02 | 0.01 | 86 | 1014.0 |
| 20260504233003 | 52 | 38 | 1.0 | 2.0 | 0.00 | 0.04 | 0.01 | 86 | 1014.0 |
| 20260504232503 | 52 | 38 | 1.0 | 2.0 | 0.00 | 0.05 | 0.01 | 86 | 1014.0 |
| 20260504232004 | 52 | 25 | 1.0 | 3.0 | 0.00 | 0.05 | 0.01 | 86 | 1014.0 |
| 20260504231504 | 52 | 7 | 2.0 | 4.0 | 0.00 | 0.05 | 0.01 | 86 | 1014.0 |
| 20260504231003 | 52 | 1 | 2.0 | 5.0 | 0.00 | 0.05 | 0.01 | 86 | 1013.8 |
| 20260504230503 | 52 | 7 | 2.0 | 5.0 | 0.00 | 0.05 | 0.01 | 86 | 1013.8 |
| 20260504230005 | 52 | 9 | 2.0 | 3.0 | 0.00 | 0.05 | 0.01 | 86 | 1013.8 |
| 20260504225503 | 52 | 4 | 1.0 | 3.0 | 0.00 | 0.05 | 0.01 | 85 | 1014.0 |
| 20260504225004 | 52 | 360 | 1.0 | 2.0 | 0.00 | 0.05 | 0.01 | 85 | 1014.0 |
| 20260504224503 | 52 | 360 | 1.0 | 2.0 | 0.00 | 0.05 | 0.01 | 85 | 1014.0 |
| 20260504224004 | 52 | 360 | 1.0 | 2.0 | 0.00 | 0.05 | 0.01 | 85 | 1014.2 |
| 20260504223714 | 52 | 360 | 0.0 | 2.0 | 0.00 | 0.05 | 0.01 | 85 | 1014.2 |
| 20260504223003 | 52 | 360 | 1.0 | 2.0 | 0.00 | 0.05 | 0.01 | 85 | 1014.2 |
| 20260504222504 | 52 | 360 | 1.0 | 3.0 | 0.00 | 0.05 | 0.01 | 85 | 1014.2 |
| 20260504222006 | 52 | 360 | 2.0 | 3.0 | 0.00 | 0.05 | 0.01 | 85 | 1014.2 |
| 20260504221503 | 52 | 360 | 1.0 | 3.0 | 0.00 | 0.05 | 0.01 | 85 | 1014.2 |
| 20260504221214 | 52 | 357 | 1.0 | 4.0 | 0.00 | 0.05 | 0.01 | 85 | 1014.2 |
| 20260504220503 | 52 | 351 | 1.0 | 4.0 | 0.00 | 0.05 | 0.01 | 84 | 1014.2 |
| 20260504220003 | 52 | 3 | 1.0 | 3.0 | 0.00 | 0.05 | 0.01 | 84 | 1014.2 |
| 20260504215503 | 53 | 16 | 1.0 | 3.0 | 0.00 | 0.05 | 0.01 | 84 | 1014.2 |
| 20260504215004 | 53 | 9 | 1.0 | 3.0 | 0.00 | 0.05 | 0.01 | 84 | 1014.2 |
| 20260504214503 | 53 | 2 | 1.0 | 3.0 | 0.00 | 0.05 | 0.01 | 84 | 1014.2 |
| 20260504214003 | 53 | 5 | 2.0 | 3.0 | 0.00 | 0.05 | 0.01 | 84 | 1014.3 |
| 20260504213504 | 53 | 10 | 2.0 | 6.0 | 0.00 | 0.05 | 0.01 | 84 | 1014.3 |
| 20260504213004 | 53 | 10 | 2.0 | 6.0 | 0.00 | 0.05 | 0.01 | 84 | 1014.3 |
| 20260504212716 | 53 | 12 | 2.0 | 6.0 | 0.00 | 0.05 | 0.01 | 84 | 1014.4 |
| 20260504212003 | 53 | 13 | 2.0 | 4.0 | 0.00 | 0.05 | 0.01 | 83 | 1014.4 |
| 20260504211503 | 53 | 11 | 2.0 | 6.0 | 0.00 | 0.05 | 0.01 | 83 | 1014.4 |